User: anonymous   Login
Location: ?????????
(38.0736°N, 23.2119°E)
Time: 07:19:15
(UTC+00:00)
Language:

USA 229 DEB - Orbit

View from above orbital plane
View from above orbital plane
View from above satellite
View from above satellite

Ground track
Ground track

The orbit data is extracted from the following two-line orbital elements,

1 37391U 11014B   24151.06400409 0.00000000  00000-0  00000-0 0    09
2 37391  63.4291  30.5319 0285075 356.7716   3.2284 13.40924798    09
Epoch (UTC): 30 May 2024 01:32:09
Eccentricity: 0.0285075
inclination: 63.4291°
perigee height: 892 km
apogee height: 1319 km
right ascension of ascending node: 30.5319°
argument of perigee: 356.7716°
revolutions per day: 13.40924798
mean anomaly at epoch: 3.2284°
orbit number at epoch: 0

The dashed part of the orbit path shows where the satellite is in the earth's shadow,  

DLR